Regional Weather Roundup
Issued by NWS Northern Indiana

Home | Current Version | Previous Version | Graphics & Text | Print | Product List | Glossary On
Versions: 1 2 3 4 5 6 7 8 9 10 11 12 13 14 15 16 17 18 19 20 21 22 23 24 25 26 27 28 29 30 31 32 33 34 35 36 37 38 39 40 41 42 43 44 45 46 47 48 49 50
000
ASUS43 KIWX 030900
RWRIWX

KIWX WEATHER ROUNDUP
NATIONAL WEATHER SERVICE NORTHERN INDIANA
500 AM EDT FRI JUL 03 2015

NOTE: "FAIR" INDICATES FEW OR NO CLOUDS BELOW 12,000 FEET WITH NO
SIGNIFICANT WEATHER AND/OR OBSTRUCTIONS TO VISIBILITY.

* THESE STATIONS ARE NOT UNDER NWS QUALITY CONTROL. THEY ALSO MAY NOT
  REPORT WEATHER SUCH AS PRECIPITATION OR FOG.

INZ001>027-031000-
NORTHERN INDIANA

CITY           SKY/WX    TMP DP  RH WIND       PRES   REMARKS
SOUTH BEND     MOCLDY    59  53  80 CALM      29.98S
GOSHEN         MOCLDY    57  54  89 CALM      29.97F
ANGOLA*          N/A     57  54  88 E5        29.98F
FORT WAYNE     MOCLDY    59  54  83 E7        29.96F
PERU/GRISSOM   CLOUDY    61  55  80 NE7       29.92F

$$
INZ028>050-031000-
CENTRAL INDIANA

CITY           SKY/WX    TMP DP  RH WIND       PRES   REMARKS
LAFAYETTE      CLOUDY    63  56  78 NE8       29.91F
KOKOMO*        CLOUDY    61  48  63 E6        29.93S
MUNCIE*        MOCLDY    62  55  77 E10       29.93S
INDIANAPOLIS   CLOUDY    63  60  90 NE10      29.88S

$$
MIZ043>046-050>051-056>058-064>065-071>073-077>080-031000-
SOUTHWEST LOWER MICHIGAN

CITY           SKY/WX    TMP DP  RH WIND       PRES   REMARKS
BATTLE CREEK   PTCLDY    57  50  77 E5        29.99F
BENTON HARBOR  MOCLDY    54  50  86 E3        29.97F
COLDWATER*     PTCLDY    54  54  98 CALM      29.99S
HILLSDALE*     PTCLDY    54  54 100 E3        29.99F
HOLLAND        PTCLDY    53  49  86 CALM      29.99F
GRAND RAPIDS   CLEAR     51  48  89 CALM      30.00S
KALAMAZOO      PTCLDY    54  50  86 CALM      29.99F
STURGIS*       PTCLDY    55  54  94 E3        29.97F
THREE RIVERS*  FAIR      56  52  88 CALM      29.98F

$$
OHZ001>008-015>018-024>025-031000-
NORTHWEST OHIO

CITY           SKY/WX    TMP DP  RH WIND       PRES   REMARKS
DEFIANCE       PTCLDY    58  55  90 NE3       29.97F
FINDLAY        PTCLDY    60  55  83 MISG      29.95F
TOLEDO EXPRESS PTCLDY    54  53  97 CALM      29.97F
TOLEDO METCALF PTCLDY    58  53  84 NE5       29.98F
LIMA           PTCLDY    57  54  89 E5        29.96S

$$
AND FOR LAKE MICHIGAN COASTAL AND OPEN LAKE BUOY OBSERVATIONS

STATION/POSITION TEMP    WIND        PRES    VSBY  WAVE
                 AIR SEA DIR/SP/G                  HT/PER
                 (F)     (DEG/KT/KT) (MB)    (MI)  (FT/S)
CALUMET HARBOR    62      50/  4/  5   N/A
MICHIGAN CITY     58      60/  8/  9   N/A
BURNS HARBOR      60      70/  7/  8 1015.2F
SAINT JOSEPH      58     360/  2/  3   N/A
4 MI NW BRIDGMAN  61 61                N/A           2/ 4
MICHIGAN CITY     60 62  100/  8/ 10   N/A           2/ 5

$$
&&


USA.gov is the U.S. government's official web portal to all federal, state and local government web resources and services.